{"data":{"norad_id":62661,"intl_designator":"2025-009BE","name":"FLOCK 4G-2","alt_names":[],"object_type":"PAYLOAD","status":"ACTIVE","operator":null,"country":"US","launch_date":"2025-01-14","launch_site_code":"AFWTR","launch_vehicle":null,"mission":null,"orbit_class":"UNKNOWN","rcs_meters":null,"size_class":null,"mass_kg":null,"dimensions":null,"purposes":["earth_obs"],"wikipedia_slug":null,"has_3d_model":false,"image_url":null,"decayed_at":null,"tle_current":{"epoch":"2026-09-19T11:34:37.351200Z","epoch_age_seconds":102450,"freshness":"FRESH","line1":"1 62661U 25009BE  26262.48237675  .00007622  00000+0  25319-3 0  9996","line2":"2 62661  97.3950 344.2021 0003643  10.6174 349.5144 15.31486059150959","mean_motion":15.31486059,"eccentricity":0.0003643,"inclination_deg":97.395,"raan_deg":344.2021,"arg_perigee_deg":10.6174,"mean_anomaly_deg":349.5144,"bstar":0.00025319,"rev_number":15095,"period_min":94.026321136757,"perigee_km":468.88253820702,"apogee_km":473.87309470229,"semimajor_km":6849.5148164547,"source":"CELESTRAK","updated_at":"2026-09-20T09:00:34.722216Z"}}}